This is the latest recevied weather packets stored in our database for station/object WX8ASH-13. If no packets are shown the sender has not sent any weather packets the latest 1 day(s).
| Time | Temp. | Humidity | Pressure | Rain* | Wind** | Luminosity | Snow |
|---|---|---|---|---|---|---|---|
| 1778034927 | 10° C | 99% | 1009.6 hPa | 2.03 mm | 1.79 m/s, 7° | - | - |
| 1778034635 | 10° C | 99% | 1010 hPa | 2.29 mm | 0 m/s | - | - |
| 1778034327 | 10° C | 99% | 1009.6 hPa | 2.54 mm | 0 m/s | - | - |
| 1778034030 | 10° C | 99% | 1009.7 hPa | 2.29 mm | 2.68 m/s, 31° | - | - |
| 1778033727 | 10° C | 99% | 1009.7 hPa | 2.54 mm | 0 m/s | - | - |
| 1778033430 | 10° C | 99% | 1009.7 hPa | 2.54 mm | 0 m/s | - | - |
| 1778033127 | 10° C | 99% | 1009.6 hPa | 2.79 mm | 0.45 m/s, 17° | - | - |
| 1778032826 | 10° C | 99% | 1009.3 hPa | 3.05 mm | 0.45 m/s, 30° | - | - |
| 1778032528 | 10° C | 99% | 1009.2 hPa | 3.56 mm | 0.45 m/s, 25° | - | - |
| 1778032226 | 10° C | 99% | 1009.3 hPa | 3.81 mm | 0.89 m/s, 359° | - | - |
| 1778031928 | 10.56° C | 99% | 1009.2 hPa | 4.32 mm | 0.89 m/s, 41° | - | - |
| 1778031628 | 10° C | 99% | 1009.1 hPa | 4.83 mm | 0 m/s | - | - |
| 1778031327 | 10° C | 99% | 1008.9 hPa | 6.35 mm | 1.79 m/s, 149° | - | - |
| 1778031025 | 10° C | 99% | 1009 hPa | 6.1 mm | 0.89 m/s, 350° | - | - |
| 1778030728 | 10.56° C | 99% | 1008.9 hPa | 5.84 mm | 1.34 m/s, 11° | - | - |
| 1778030425 | 10.56° C | 99% | 1008.8 hPa | 5.84 mm | 1.34 m/s, 3° | - | - |
| 1778030131 | 10.56° C | 98% | 1008.8 hPa | 10.16 mm | 0.89 m/s, 14° | - | - |
| 1778029825 | 10.56° C | 98% | 1008.8 hPa | 9.65 mm | 0.89 m/s, 30° | - | - |
| 1778029527 | 11.11° C | 98% | 1008.8 hPa | 9.14 mm | 1.34 m/s, 359° | - | - |
| 1778029228 | 11.11° C | 98% | 1008.8 hPa | 8.64 mm | 0.89 m/s, 345° | - | - |
| 1778028930 | 11.11° C | 98% | 1008.8 hPa | 7.87 mm | 0.89 m/s, 328° | - | - |
| 1778028624 | 11.11° C | 98% | 1008.8 hPa | 7.37 mm | 2.68 m/s, 304° | - | - |
| 1778028328 | 11.11° C | 98% | 1008.5 hPa | 6.86 mm | 1.34 m/s, 359° | - | - |
| 1778028024 | 11.11° C | 98% | 1008.4 hPa | 6.1 mm | 0 m/s | - | - |
| 1778027725 | 11.67° C | 98% | 1008.5 hPa | 4.57 mm | 0 m/s | - | - |
* Rain latest hour (hover to see other rain measurements)
** Current wind speed in m/s (hover to see current wind gust speed)